SCP
0 0 0 0 0 0 0 0 0 0 0 0 0 0 0 0 0 0 0 -0 -0 -0 -0 -0 -0 -0 -0 -0 -0 0 0 0 0 0 0 0 0 0 0 0 0 0 0 0 0 0 0 0 0
0 0 0 0 0 0 0 0 0 0 0 0 0 0 0 0 0 0 0 0 -0 -0 -0 0 -0 -0 -0 -0 -0 0 0 0 0 0 0 0 0 0 0 0 0 0 0 0 0 0 0 0 0
0 0 0 0 0 0 0 0 0 0 0 0 0 0 0 0 0 0 0 -0 -0 0 0 0 -0 -0 -0 -0 -0 0 0 0 0 0 0 0 0 0 0 0 0 0 0 0 0 0 0 0 0
0 0 0 0 0 0 0 0 0 0 0 0 0 0 0 0 0 0 0 0 0 0 0 0 -0 -0 -0 -0 0 0 0 0 0 0 0 0 0 0 0 0 0 0 0 0 0 0 0 0 0
0 0 0 0 0 0 0 0 0 0 0 0 0 0 0 0 0 0 0 0 0 0 0 0 0 -0 -0 -0 0 0 0 0 0 0 0 0 0 0 0 0 0 0 0 0 0 0 0 0 0
0 0 0 0 0 0 0 0 0 0 0 0 0 0 0 0 0 0 0 0 0 0 0 0 -0 -0 -0 -0 0 0 0 0 0 0 0 0 0 0 0 0 0 0 0 0 0 0 0 0 0
0 0 0 0 0 0 0 0 0 0 0 0 0 0 0 0 0 0 0 0 0 0 0 0 0 -0 -0 -0 0 0 0 0 0 0 0 0 0 0 0 0 0 0 0 0 0 0 0 0 0
0 0 0 0 0 0 0 0 0 0 0 0 0 0 0 0 0 0 0 0 0 0 0 0 0 -0 -0 -0 -0 0 0 0 0 0 0 0 0 0 0 0 0 0 0 0 0 0 0 0 0
0 0 0 0 0 0 0 0 0 0 0 0 0 0 0 0 0 0 0 0 0 0 0 0 0 -0 -0 -0 0 0 0 0 0 0 0 0 0 0 0 0 0 0 0 0 0 0 0 0 0
0 0 0 0 0 0 0 0 0 0 0 0 0 0 0 0 0 0 0 0 0 0 0 0 0 -0 -0 -0 -0 0 0 0 0 0 0 0 0 0 0 0 0 0 0 0 0 0 0 0 0
0 0 0 0 0 0 0 0 0 0 0 0 0 0 0 0 0 0 0 0 0 0 0 0 0 -0 -0 -0 -0 0 0 0 0 0 0 0 0 0 0 0 0 0 0 0 0 0 0 0 0
0 0 0 0 0 0 0 0 0 0 0 0 0 0 0 0 0 0 0 0 0 0 0 0 0 0 0 0 0 0 0 0 0 0 0 0 0 0 0 0 0 0 0 0 0 0 0 0 0
0 0 0 0 0 0 0 0 0 0 0 0 0 0 0 0 0 0 0 0 0 0 0 0 0 0 0 0 0 0 0 0 0 0 0 0 0 0 0 0 0 0 0 0 0 0 0 0 0
0 0 0 0 0 0 0 0 0 0 0 0 0 0 0 0 0 0 0 0 0 0 0 0 0 0 0 0 0 0 0 0 0 0 0 0 0 0 0 0 0 0 0 0 0 0 0 0 0
0 0 0 0 0 0 -0 0 -0 0 0 0 0 0 0 0 0 0 0 0 0 0 0 0 0 0 0 0 0 0 0 0 0 0 0 0 0 0 0 0 0 0 0 0 0 0 0 0 0
0 0 0 0 0 0 0 -0 0 0 0 0 0 0 0 0 0 0 0 0 0 0 0 0 0 0 0 0 0 0 0 0 0 0 0 0 0 0 0 0 0 0 0 0 0 0 0 0 0
0 0 0 0 0 0 0 -0 -0 0 0 0 0 0 0 0 0 0 0 0 0 0 0 0 0 0 0 0 0 0 0 0 0 0 0 0 0 0 0 0 0 0 0 0 0 0 0 0 0
0 0 0 0 0 0 0 0 0 0 0 0 0 0 0 0 0 0 0 0 0 0 0 0 0 0 0 0 0 0 0 0 0 0 0 0 0 0 0 0 0 0 0 0 0 0 0 0 0
0 0 0 0 0 0 0 0 0 0 0 0 0 0 0 0 0 0 0 0 0 0 0 0 0 0 0 0 0 0 0 0 0 0 0 0 0 0 0 0 0 0 0 0 0 0 0 -0 0
0 0 0 0 0 0 0 0 0 0 0 0 0 0 0 0 0 0 0 0 0 0 0 0 0 0 0 0 0 0 0 0 0 0 0 0 0 0 0 0 0 0 0 0 0 0 0 0 0
0 0 0 0 0 0 0 -0 0 0 0 0 0 0 0 0 0 0 0 0 0 0 0 0 0 0 0 0 0 0 0 0 0 0 0 0 0 0 0 0 0 0 0 0 0 0 0 0 0
0 0 0 0 0 0 0 -0 -0 0 0 0 0 0 0 0 0 0 0 0 0 0 0 0 0 0 0 0 0 0 0 0 0 0 0 0 0 0 0 0 0 0 0 0 0 0 0 0 0
0 0 0 0 0 0 0 0 -0 -0 0 0 0 0 0 0 0 0 0 0 0 0 0 0 0 0 0 0 0 0 0 0 0 0 0 0 0 0 0 0 0 0 0 0 0 0 0 0 0
0 0 0 0 0 0 0 0 -0 0 0 0 0 0 0 0 0 0 0 0 0 0 0 0 0 0 0 0 0 0 0 0 0 0 0 0 0 0 0 0 0 0 0 0 0 0 0 0 0
0 0 0 0 0 0 0 0 0 0 0 0 0 0 0 0 0 0 0 0 0 0 0 0 0 0 0 0 0 0 0 0 0 0 0 0 0 0 0 0 0 0 0 0 0 0 0 0 0
0 0 0 0 0 0 0 0 0 -0 0 -0 0 0 0 0 0 0 0 0 0 0 0 0 0 0 0 0 0 0 0 0 0 0 0 0 0 0 0 0 0 0 0 0 0 0 0 0 0
0 0 0 0 0 0 0 0 -0 0 0 0 0 0 0 0 0 0 0 0 0 0 0 0 0 0 0 0 0 0 0 0 0 0 0 0 0 0 0 0 0 0 0 0 0 0 0 0 0
0 0 0 0 0 0 0 0 0 0 -0 0 0 0 0 0 0 0 0 0 0 0 0 0 0 0 0 0 0 0 0 0 0 0 0 0 0 0 0 0 0 0 0 0 0 0 0 0 0
0 0 0 0 0 0 0 0 -0 -0 0 -0 0 0 0 0 0 0 0 0 0 0 0 0 0 0 0 0 0 0 0 0 0 0 0 0 0 0 0 0 0 0 0 0 0 0 0 0 0
0 0 0 0 0 0 0 0 0 0 0 0 0 0 0 0 0 0 0 0 0 0 0 0 0 0 0 0 0 0 0 0 0 0 0 0 0 0 0 0 0 0 0 0 0 0 0 0 0
Wind_Speed_500mb
16 8 3 2 6 7 6 10 4 7 4 6 13 9 11 6 7 5 28 32 33 33 36 27 21 9 10 15 8 10 7 8 8 7 8 9 9 10 11 12 13 15 17 18 19 19 25 28 28
13 6 5 7 7 2 8 7 11 11 3 21 18 13 4 3 5 12 39 34 33 34 34 29 18 13 16 13 11 8 5 5 5 8 9 9 10 11 13 14 15 16 18 20 25 27 27 26 25
10 7 6 8 6 9 8 8 10 9 20 5 7 4 7 7 8 37 21 38 38 34 31 28 21 16 21 13 11 6 2 3 7 8 8 9 11 12 14 16 17 18 20 21 22 23 23 23 24
8 5 7 7 10 11 11 6 4 7 12 9 6 5 7 7 18 27 33 36 37 33 34 32 25 18 15 16 11 5 0 4 7 7 8 10 13 15 16 18 20 23 21 17 21 20 21 24 21
11 3 5 4 9 9 9 12 6 6 6 6 12 8 8 13 17 26 37 33 35 35 34 31 28 15 19 16 11 4 2 3 5 5 8 12 15 17 18 20 24 26 21 21 23 22 23 23 21
6 6 3 9 10 8 11 15 6 10 9 6 8 15 10 21 21 25 36 33 33 30 32 29 26 22 20 16 10 5 3 3 3 7 10 15 17 19 19 21 24 24 21 22 24 24 24 26 26
8 7 8 8 7 7 10 6 8 10 8 11 8 10 7 27 26 27 32 34 33 30 25 25 20 19 21 16 10 5 3 2 3 8 13 17 19 20 21 23 24 24 21 22 25 27 29 29 29
7 7 7 8 9 12 7 4 6 13 12 8 15 8 6 31 33 34 37 37 35 31 27 22 19 17 21 17 11 6 3 1 6 9 13 16 18 20 22 23 22 23 24 28 30 31 31 30 28
10 5 8 11 13 12 8 7 8 7 8 13 15 9 7 30 38 42 45 43 41 37 32 25 19 17 24 19 13 8 4 1 5 10 14 16 16 18 20 22 20 22 26 29 32 32 32 30 29
10 8 18 12 9 9 11 9 9 6 9 11 16 21 16 32 43 47 50 52 50 44 37 27 21 20 25 20 14 10 7 3 3 8 12 14 15 17 19 19 19 22 26 29 30 32 35 30 28
15 13 9 9 23 12 7 6 9 11 9 21 21 26 26 36 47 47 46 44 39 38 36 28 23 24 25 21 16 12 8 4 2 6 10 11 14 16 19 17 19 22 25 29 30 33 33 33 34
6 18 14 5 12 7 6 5 7 21 12 8 15 19 29 40 49 52 49 48 46 43 34 30 27 28 27 24 19 15 10 7 2 4 7 9 13 15 18 17 17 21 26 31 32 35 33 32 34
7 8 17 32 14 15 16 20 14 23 32 27 19 19 26 38 46 49 48 47 46 45 39 35 30 30 29 25 21 16 13 10 4 2 7 8 11 14 16 15 16 19 25 29 32 34 31 34 38
11 16 11 10 14 16 10 12 11 21 33 46 45 35 32 36 38 45 52 53 53 48 45 39 34 31 30 27 22 19 15 12 7 1 4 6 9 12 14 14 13 16 22 28 32 33 32 38 40
7 6 7 14 13 11 11 19 20 65 55 40 30 43 58 55 47 52 47 53 52 51 49 46 39 35 33 30 27 22 18 15 11 4 1 3 6 11 11 13 13 14 20 25 26 31 32 38 41
6 2 4 6 19 9 23 35 12 30 53 65 66 67 59 56 59 62 57 57 55 54 53 51 46 41 37 34 31 26 21 18 14 9 3 2 4 9 10 12 12 13 18 22 22 27 31 35 45
4 6 10 14 26 9 15 13 12 27 29 41 43 47 61 68 63 63 62 69 62 58 57 57 53 48 42 39 36 31 26 23 18 13 7 4 3 7 9 10 12 15 17 18 20 22 31 36 39
9 7 11 13 9 6 8 23 25 37 15 33 35 39 44 50 64 61 59 64 70 66 62 60 58 52 48 44 43 39 35 30 24 17 10 8 6 6 9 7 12 16 16 16 18 19 29 39 40
13 10 14 7 9 9 16 22 34 39 21 42 59 58 54 55 47 43 40 49 61 72 72 69 67 60 59 59 57 51 43 34 27 20 15 11 9 8 9 7 12 16 15 15 17 18 20 26 31
12 13 13 9 6 10 6 24 29 14 21 42 65 68 72 70 60 57 56 51 56 66 74 74 72 68 64 62 57 52 41 34 27 25 19 15 13 10 9 8 11 17 15 15 16 18 12 12 13
36 37 10 6 3 6 9 16 20 16 26 46 67 77 77 75 72 66 63 59 60 63 74 75 76 70 67 64 61 56 47 40 39 33 25 18 15 13 9 9 11 16 17 14 15 16 11 11 11
37 16 12 9 3 9 4 13 13 12 20 14 43 63 82 85 82 77 70 66 66 63 62 71 73 72 71 66 66 59 53 47 38 28 24 21 19 16 11 10 13 15 18 17 14 13 13 13 16
14 18 26 13 8 4 8 6 11 7 16 30 29 63 74 70 75 78 79 77 72 68 65 67 73 73 72 69 63 60 54 44 33 32 30 25 22 20 15 12 14 15 18 18 18 14 16 17 21
17 15 13 9 7 7 21 18 13 20 20 19 16 45 50 58 59 59 54 58 70 72 72 71 77 76 74 72 68 63 56 48 43 36 34 29 25 23 19 14 14 18 19 19 19 18 17 19 21
12 24 3 1 3 19 5 15 35 17 14 14 17 17 19 21 17 37 54 61 61 76 79 76 79 80 75 73 69 64 57 50 43 35 31 30 27 25 21 17 15 18 19 20 21 21 17 17 19
25 32 14 16 10 6 4 19 12 28 32 34 45 47 38 33 32 27 45 64 64 69 83 81 80 81 77 76 71 63 58 54 46 38 30 28 23 24 24 19 16 19 19 19 22 22 20 17 18
16 29 16 13 4 5 11 15 15 26 30 17 24 32 45 46 30 24 42 53 66 68 82 82 84 82 79 76 71 67 62 57 50 41 35 31 30 30 28 24 19 19 20 20 22 23 23 20 12
32 25 14 1 11 9 10 11 12 13 18 14 18 23 39 38 35 24 35 48 56 63 74 78 79 77 76 75 72 67 61 58 53 47 42 38 35 35 32 27 22 19 19 21 24 24 23 21 13
10 29 11 10 7 15 4 12 14 16 6 9 14 21 15 28 32 27 33 41 45 53 65 73 74 72 72 72 70 67 65 61 57 51 45 39 37 36 34 30 24 21 18 22 25 28 24 22 19
14 20 21 22 16 5 4 10 2 10 11 12 9 14 14 21 26 27 33 40 45 49 56 65 70 69 67 67 69 68 65 62 60 55 48 43 40 37 35 33 29 24 20 21 23 28 27 25 26
Wind_Direction_500mb
281 288 305 267 54 59 269 260 277 268 233 198 141 157 180 124 171 200 153 157 159 167 166 171 185 197 214 243 215 225 262 308 329 355 2 7 358 348 334 326 319 312 307 305 306 311 299 302 299
267 252 173 107 97 91 267 255 235 236 196 132 120 118 123 171 165 155 151 158 157 165 165 171 181 193 227 222 198 218 271 324 4 22 15 4 351 344 337 331 324 318 313 313 316 318 315 310 299
248 219 191 101 120 187 226 220 267 284 178 149 130 127 149 163 164 157 162 162 161 167 163 172 180 196 229 189 189 210 288 2 33 22 9 359 350 351 344 339 336 335 336 334 326 324 322 317 310
205 190 66 109 209 245 217 238 254 281 214 254 173 123 142 159 157 168 167 167 163 169 170 178 181 199 191 177 185 203 343 44 41 17 3 3 358 356 352 349 352 350 355 353 353 349 345 337 334
184 212 80 149 233 254 243 262 262 253 269 208 174 201 163 164 161 170 174 169 171 173 177 184 198 228 173 177 187 185 124 68 37 14 10 8 1 1 3 4 4 3 8 6 1 2 352 350 340
162 115 94 219 236 248 270 248 247 233 247 190 189 163 172 177 166 166 171 170 173 182 182 197 212 244 178 182 188 177 130 80 19 12 12 11 3 7 9 9 5 4 2 8 8 1 351 351 347
138 106 217 198 238 288 237 209 199 232 220 225 191 150 200 186 173 167 170 173 177 186 195 207 219 247 183 188 189 182 150 82 9 12 13 9 7 9 11 12 7 12 25 17 17 9 358 355 350
179 101 150 229 206 249 210 225 205 210 233 203 183 201 219 191 178 168 171 177 186 191 202 212 225 245 191 192 189 187 168 351 10 9 13 10 12 13 16 18 18 30 23 22 18 10 4 2 356
162 84 212 226 171 236 185 192 184 214 214 195 201 212 209 178 179 174 178 185 194 199 206 214 228 227 196 196 194 192 194 241 9 5 9 15 18 19 19 14 29 34 28 29 20 13 16 11 3
147 162 216 203 208 241 181 188 180 181 197 223 225 223 210 184 187 188 192 193 197 202 206 212 222 212 200 199 198 200 209 223 11 4 11 14 22 24 20 24 36 38 33 29 21 25 27 20 8
178 203 209 244 225 249 243 222 200 160 236 220 219 227 213 194 196 202 203 208 206 202 209 213 216 206 206 203 203 203 212 230 343 2 15 20 26 26 24 35 41 42 37 33 35 39 38 37 45
207 227 199 250 220 218 233 255 229 205 216 205 229 233 222 208 207 210 210 207 205 206 210 213 215 207 206 205 204 202 207 223 266 360 3 38 36 29 31 44 50 49 43 41 45 44 41 44 50
235 234 205 231 228 239 256 254 249 248 232 243 248 235 226 222 220 220 220 215 212 212 211 213 216 209 207 208 205 201 207 217 228 359 357 44 45 35 36 49 52 56 48 47 47 43 51 60 55
231 226 236 230 225 229 228 258 203 252 252 245 242 237 232 227 228 227 224 219 218 217 215 214 215 210 208 206 204 204 208 216 222 237 17 27 57 46 39 54 58 65 55 53 48 55 60 66 65
231 253 304 230 216 228 190 277 228 251 253 250 241 242 240 239 230 234 235 231 224 221 218 218 216 213 210 204 205 208 208 216 220 216 80 33 65 55 42 60 73 78 65 63 54 51 75 69 62
204 194 213 268 161 233 163 253 271 263 242 245 246 245 242 239 240 238 235 234 231 226 222 220 218 217 212 207 207 209 209 217 218 214 166 131 77 67 49 67 78 85 78 77 66 61 78 71 70
282 222 219 305 196 145 183 255 255 247 232 246 246 249 244 244 239 237 236 234 229 228 224 221 220 218 214 208 208 209 211 216 219 213 185 166 141 85 59 72 85 103 92 89 82 65 78 81 74
195 221 236 222 215 171 215 259 264 267 250 256 260 254 246 243 239 236 238 235 231 226 225 224 222 218 214 211 209 210 212 214 215 211 197 180 166 119 78 88 97 115 103 99 95 84 83 84 78
184 198 210 231 232 167 218 249 261 258 245 257 264 261 254 249 241 225 231 233 230 226 224 221 218 216 212 208 208 210 213 212 213 210 204 186 179 152 101 111 106 123 113 110 108 105 98 76 74
182 194 229 286 169 178 240 259 255 239 245 231 249 255 257 255 247 238 235 230 224 224 222 220 218 216 214 214 214 214 211 210 213 214 207 193 185 173 123 136 122 134 126 115 117 121 114 97 83
219 219 166 225 134 226 327 273 258 249 237 248 249 253 255 252 249 240 235 233 230 226 222 219 216 214 215 214 212 212 209 210 213 210 204 196 186 184 151 149 141 141 137 129 127 126 122 93 71
218 158 152 157 83 241 133 284 268 250 250 230 244 248 249 247 246 244 237 232 229 228 222 219 216 213 214 214 212 212 211 211 212 210 205 198 190 189 170 158 156 150 148 140 135 121 118 104 80
208 151 187 171 177 28 208 286 262 266 254 255 246 244 247 248 246 246 243 236 232 228 224 217 213 212 214 213 212 212 210 214 215 207 205 202 194 191 180 169 167 158 157 149 141 129 119 112 97
136 96 61 62 103 267 227 197 234 224 215 247 242 249 252 253 250 244 237 232 227 222 217 214 209 209 209 210 209 209 209 209 208 206 206 203 197 193 184 180 175 167 163 159 151 142 134 123 111
169 152 72 71 191 238 335 197 248 249 239 240 248 235 229 220 234 235 225 217 216 211 209 209 208 207 206 207 208 207 206 208 209 209 209 207 200 195 186 185 180 170 167 167 165 153 150 143 137
183 179 163 180 198 197 131 235 241 232 264 244 248 253 253 249 258 252 218 212 208 208 207 204 203 204 204 204 204 203 204 205 206 207 206 205 199 191 191 186 184 172 170 170 173 163 157 150 147
188 205 169 101 11 82 217 287 270 255 257 245 247 234 242 240 240 240 213 206 207 205 203 201 199 201 202 202 200 200 201 202 203 202 202 200 196 193 192 186 187 181 170 173 173 173 162 159 138
183 168 172 316 150 233 261 270 239 296 271 266 243 215 240 230 218 215 200 199 202 204 202 199 199 200 200 200 199 199 199 199 200 201 202 200 197 192 192 189 187 187 176 174 172 173 171 168 155
144 187 195 128 170 187 214 255 218 240 30 249 262 220 226 201 194 197 191 192 197 201 202 197 199 199 199 199 197 198 198 198 199 202 201 202 201 194 190 190 188 190 184 173 176 176 174 172 163
192 188 186 194 217 226 144 272 318 290 275 257 4 118 137 157 164 172 177 182 186 193 195 197 199 199 198 196 197 198 198 198 200 200 201 201 200 195 191 190 189 190 185 177 177 181 180 178 167
Wind_Speed_850mb
16 8 3 2 6 7 6 10 4 7 4 6 13 9 11 6 7 5 28 32 33 33 36 27 21 9 10 15 8 10 7 8 8 7 8 9 9 10 11 12 13 15 17 18 19 19 25 28 28
13 6 5 7 7 2 8 7 11 11 3 21 18 13 4 3 5 12 39 34 33 34 34 29 18 13 16 13 11 8 5 5 5 8 9 9 10 11 13 14 15 16 18 20 25 27 27 26 25
10 7 6 8 6 9 8 8 10 9 20 5 7 4 7 7 8 37 21 38 38 34 31 28 21 16 21 13 11 6 2 3 7 8 8 9 11 12 14 16 17 18 20 21 22 23 23 23 24
8 5 7 7 10 11 11 6 4 7 12 9 6 5 7 7 18 27 33 36 37 33 34 32 25 18 15 16 11 5 0 4 7 7 8 10 13 15 16 18 20 23 21 17 21 20 21 24 21
11 3 5 4 9 9 9 12 6 6 6 6 12 8 8 13 17 26 37 33 35 35 34 31 28 15 19 16 11 4 2 3 5 5 8 12 15 17 18 20 24 26 21 21 23 22 23 23 21
6 6 3 9 10 8 11 15 6 10 9 6 8 15 10 21 21 25 36 33 33 30 32 29 26 22 20 16 10 5 3 3 3 7 10 15 17 19 19 21 24 24 21 22 24 24 24 26 26
8 7 8 8 7 7 10 6 8 10 8 11 8 10 7 27 26 27 32 34 33 30 25 25 20 19 21 16 10 5 3 2 3 8 13 17 19 20 21 23 24 24 21 22 25 27 29 29 29
7 7 7 8 9 12 7 4 6 13 12 8 15 8 6 31 33 34 37 37 35 31 27 22 19 17 21 17 11 6 3 1 6 9 13 16 18 20 22 23 22 23 24 28 30 31 31 30 28
10 5 8 11 13 12 8 7 8 7 8 13 15 9 7 30 38 42 45 43 41 37 32 25 19 17 24 19 13 8 4 1 5 10 14 16 16 18 20 22 20 22 26 29 32 32 32 30 29
10 8 18 12 9 9 11 9 9 6 9 11 16 21 16 32 43 47 50 52 50 44 37 27 21 20 25 20 14 10 7 3 3 8 12 14 15 17 19 19 19 22 26 29 30 32 35 30 28
15 13 9 9 23 12 7 6 9 11 9 21 21 26 26 36 47 47 46 44 39 38 36 28 23 24 25 21 16 12 8 4 2 6 10 11 14 16 19 17 19 22 25 29 30 33 33 33 34
6 18 14 5 12 7 6 5 7 21 12 8 15 19 29 40 49 52 49 48 46 43 34 30 27 28 27 24 19 15 10 7 2 4 7 9 13 15 18 17 17 21 26 31 32 35 33 32 34
7 8 17 32 14 15 16 20 14 23 32 27 19 19 26 38 46 49 48 47 46 45 39 35 30 30 29 25 21 16 13 10 4 2 7 8 11 14 16 15 16 19 25 29 32 34 31 34 38
11 16 11 10 14 16 10 12 11 21 33 46 45 35 32 36 38 45 52 53 53 48 45 39 34 31 30 27 22 19 15 12 7 1 4 6 9 12 14 14 13 16 22 28 32 33 32 38 40
7 6 7 14 13 11 11 19 20 65 55 40 30 43 58 55 47 52 47 53 52 51 49 46 39 35 33 30 27 22 18 15 11 4 1 3 6 11 11 13 13 14 20 25 26 31 32 38 41
6 2 4 6 19 9 23 35 12 30 53 65 66 67 59 56 59 62 57 57 55 54 53 51 46 41 37 34 31 26 21 18 14 9 3 2 4 9 10 12 12 13 18 22 22 27 31 35 45
4 6 10 14 26 9 15 13 12 27 29 41 43 47 61 68 63 63 62 69 62 58 57 57 53 48 42 39 36 31 26 23 18 13 7 4 3 7 9 10 12 15 17 18 20 22 31 36 39
9 7 11 13 9 6 8 23 25 37 15 33 35 39 44 50 64 61 59 64 70 66 62 60 58 52 48 44 43 39 35 30 24 17 10 8 6 6 9 7 12 16 16 16 18 19 29 39 40
13 10 14 7 9 9 16 22 34 39 21 42 59 58 54 55 47 43 40 49 61 72 72 69 67 60 59 59 57 51 43 34 27 20 15 11 9 8 9 7 12 16 15 15 17 18 20 26 31
12 13 13 9 6 10 6 24 29 14 21 42 65 68 72 70 60 57 56 51 56 66 74 74 72 68 64 62 57 52 41 34 27 25 19 15 13 10 9 8 11 17 15 15 16 18 12 12 13
36 37 10 6 3 6 9 16 20 16 26 46 67 77 77 75 72 66 63 59 60 63 74 75 76 70 67 64 61 56 47 40 39 33 25 18 15 13 9 9 11 16 17 14 15 16 11 11 11
37 16 12 9 3 9 4 13 13 12 20 14 43 63 82 85 82 77 70 66 66 63 62 71 73 72 71 66 66 59 53 47 38 28 24 21 19 16 11 10 13 15 18 17 14 13 13 13 16
14 18 26 13 8 4 8 6 11 7 16 30 29 63 74 70 75 78 79 77 72 68 65 67 73 73 72 69 63 60 54 44 33 32 30 25 22 20 15 12 14 15 18 18 18 14 16 17 21
17 15 13 9 7 7 21 18 13 20 20 19 16 45 50 58 59 59 54 58 70 72 72 71 77 76 74 72 68 63 56 48 43 36 34 29 25 23 19 14 14 18 19 19 19 18 17 19 21
12 24 3 1 3 19 5 15 35 17 14 14 17 17 19 21 17 37 54 61 61 76 79 76 79 80 75 73 69 64 57 50 43 35 31 30 27 25 21 17 15 18 19 20 21 21 17 17 19
25 32 14 16 10 6 4 19 12 28 32 34 45 47 38 33 32 27 45 64 64 69 83 81 80 81 77 76 71 63 58 54 46 38 30 28 23 24 24 19 16 19 19 19 22 22 20 17 18
16 29 16 13 4 5 11 15 15 26 30 17 24 32 45 46 30 24 42 53 66 68 82 82 84 82 79 76 71 67 62 57 50 41 35 31 30 30 28 24 19 19 20 20 22 23 23 20 12
32 25 14 1 11 9 10 11 12 13 18 14 18 23 39 38 35 24 35 48 56 63 74 78 79 77 76 75 72 67 61 58 53 47 42 38 35 35 32 27 22 19 19 21 24 24 23 21 13
10 29 11 10 7 15 4 12 14 16 6 9 14 21 15 28 32 27 33 41 45 53 65 73 74 72 72 72 70 67 65 61 57 51 45 39 37 36 34 30 24 21 18 22 25 28 24 22 19
14 20 21 22 16 5 4 10 2 10 11 12 9 14 14 21 26 27 33 40 45 49 56 65 70 69 67 67 69 68 65 62 60 55 48 43 40 37 35 33 29 24 20 21 23 28 27 25 26
Wind_Direction_850mb
281 288 305 267 54 59 269 260 277 268 233 198 141 157 180 124 171 200 153 157 159 167 166 171 185 197 214 243 215 225 262 308 329 355 2 7 358 348 334 326 319 312 307 305 306 311 299 302 299
267 252 173 107 97 91 267 255 235 236 196 132 120 118 123 171 165 155 151 158 157 165 165 171 181 193 227 222 198 218 271 324 4 22 15 4 351 344 337 331 324 318 313 313 316 318 315 310 299
248 219 191 101 120 187 226 220 267 284 178 149 130 127 149 163 164 157 162 162 161 167 163 172 180 196 229 189 189 210 288 2 33 22 9 359 350 351 344 339 336 335 336 334 326 324 322 317 310
205 190 66 109 209 245 217 238 254 281 214 254 173 123 142 159 157 168 167 167 163 169 170 178 181 199 191 177 185 203 343 44 41 17 3 3 358 356 352 349 352 350 355 353 353 349 345 337 334
184 212 80 149 233 254 243 262 262 253 269 208 174 201 163 164 161 170 174 169 171 173 177 184 198 228 173 177 187 185 124 68 37 14 10 8 1 1 3 4 4 3 8 6 1 2 352 350 340
162 115 94 219 236 248 270 248 247 233 247 190 189 163 172 177 166 166 171 170 173 182 182 197 212 244 178 182 188 177 130 80 19 12 12 11 3 7 9 9 5 4 2 8 8 1 351 351 347
138 106 217 198 238 288 237 209 199 232 220 225 191 150 200 186 173 167 170 173 177 186 195 207 219 247 183 188 189 182 150 82 9 12 13 9 7 9 11 12 7 12 25 17 17 9 358 355 350
179 101 150 229 206 249 210 225 205 210 233 203 183 201 219 191 178 168 171 177 186 191 202 212 225 245 191 192 189 187 168 351 10 9 13 10 12 13 16 18 18 30 23 22 18 10 4 2 356
162 84 212 226 171 236 185 192 184 214 214 195 201 212 209 178 179 174 178 185 194 199 206 214 228 227 196 196 194 192 194 241 9 5 9 15 18 19 19 14 29 34 28 29 20 13 16 11 3
147 162 216 203 208 241 181 188 180 181 197 223 225 223 210 184 187 188 192 193 197 202 206 212 222 212 200 199 198 200 209 223 11 4 11 14 22 24 20 24 36 38 33 29 21 25 27 20 8
178 203 209 244 225 249 243 222 200 160 236 220 219 227 213 194 196 202 203 208 206 202 209 213 216 206 206 203 203 203 212 230 343 2 15 20 26 26 24 35 41 42 37 33 35 39 38 37 45
207 227 199 250 220 218 233 255 229 205 216 205 229 233 222 208 207 210 210 207 205 206 210 213 215 207 206 205 204 202 207 223 266 360 3 38 36 29 31 44 50 49 43 41 45 44 41 44 50
235 234 205 231 228 239 256 254 249 248 232 243 248 235 226 222 220 220 220 215 212 212 211 213 216 209 207 208 205 201 207 217 228 359 357 44 45 35 36 49 52 56 48 47 47 43 51 60 55
231 226 236 230 225 229 228 258 203 252 252 245 242 237 232 227 228 227 224 219 218 217 215 214 215 210 208 206 204 204 208 216 222 237 17 27 57 46 39 54 58 65 55 53 48 55 60 66 65
231 253 304 230 216 228 190 277 228 251 253 250 241 242 240 239 230 234 235 231 224 221 218 218 216 213 210 204 205 208 208 216 220 216 80 33 65 55 42 60 73 78 65 63 54 51 75 69 62
204 194 213 268 161 233 163 253 271 263 242 245 246 245 242 239 240 238 235 234 231 226 222 220 218 217 212 207 207 209 209 217 218 214 166 131 77 67 49 67 78 85 78 77 66 61 78 71 70
282 222 219 305 196 145 183 255 255 247 232 246 246 249 244 244 239 237 236 234 229 228 224 221 220 218 214 208 208 209 211 216 219 213 185 166 141 85 59 72 85 103 92 89 82 65 78 81 74
195 221 236 222 215 171 215 259 264 267 250 256 260 254 246 243 239 236 238 235 231 226 225 224 222 218 214 211 209 210 212 214 215 211 197 180 166 119 78 88 97 115 103 99 95 84 83 84 78
184 198 210 231 232 167 218 249 261 258 245 257 264 261 254 249 241 225 231 233 230 226 224 221 218 216 212 208 208 210 213 212 213 210 204 186 179 152 101 111 106 123 113 110 108 105 98 76 74
182 194 229 286 169 178 240 259 255 239 245 231 249 255 257 255 247 238 235 230 224 224 222 220 218 216 214 214 214 214 211 210 213 214 207 193 185 173 123 136 122 134 126 115 117 121 114 97 83
219 219 166 225 134 226 327 273 258 249 237 248 249 253 255 252 249 240 235 233 230 226 222 219 216 214 215 214 212 212 209 210 213 210 204 196 186 184 151 149 141 141 137 129 127 126 122 93 71
218 158 152 157 83 241 133 284 268 250 250 230 244 248 249 247 246 244 237 232 229 228 222 219 216 213 214 214 212 212 211 211 212 210 205 198 190 189 170 158 156 150 148 140 135 121 118 104 80
208 151 187 171 177 28 208 286 262 266 254 255 246 244 247 248 246 246 243 236 232 228 224 217 213 212 214 213 212 212 210 214 215 207 205 202 194 191 180 169 167 158 157 149 141 129 119 112 97
136 96 61 62 103 267 227 197 234 224 215 247 242 249 252 253 250 244 237 232 227 222 217 214 209 209 209 210 209 209 209 209 208 206 206 203 197 193 184 180 175 167 163 159 151 142 134 123 111
169 152 72 71 191 238 335 197 248 249 239 240 248 235 229 220 234 235 225 217 216 211 209 209 208 207 206 207 208 207 206 208 209 209 209 207 200 195 186 185 180 170 167 167 165 153 150 143 137
183 179 163 180 198 197 131 235 241 232 264 244 248 253 253 249 258 252 218 212 208 208 207 204 203 204 204 204 204 203 204 205 206 207 206 205 199 191 191 186 184 172 170 170 173 163 157 150 147
188 205 169 101 11 82 217 287 270 255 257 245 247 234 242 240 240 240 213 206 207 205 203 201 199 201 202 202 200 200 201 202 203 202 202 200 196 193 192 186 187 181 170 173 173 173 162 159 138
183 168 172 316 150 233 261 270 239 296 271 266 243 215 240 230 218 215 200 199 202 204 202 199 199 200 200 200 199 199 199 199 200 201 202 200 197 192 192 189 187 187 176 174 172 173 171 168 155
144 187 195 128 170 187 214 255 218 240 30 249 262 220 226 201 194 197 191 192 197 201 202 197 199 199 199 199 197 198 198 198 199 202 201 202 201 194 190 190 188 190 184 173 176 176 174 172 163
192 188 186 194 217 226 144 272 318 290 275 257 4 118 137 157 164 172 177 182 186 193 195 197 199 199 198 196 197 198 198 198 200 200 201 201 200 195 191 190 189 190 185 177 177 181 180 178 167